Regional Weather Roundup
Issued by NWS Goodland, KS

Home | Current Version | Previous Version | Text Only | Print | Product List | Glossary Off
Versions: 1 2 3 4 5 6 7 8 9 10 11 12 13 14 15 16 17 18 19 20 21 22 23 24 25 26 27 28 29 30 31 32 33 34 35 36 37 38 39 40 41 42 43 44 45 46 47 48 49 50

000
ASUS43 KGLD 232059
RWRGLD

GOODLAND FORECAST AREA HOURLY WEATHER ROUNDUP
NATIONAL WEATHER SERVICE GOODLAND KS
300 PM MDT SUN JUL 23 2017

...OFFICIAL OBSERVATIONS...

CITY           SKY/WX    TMP DP  RH WIND       PRES   REMARKS
GOODLAND KS    SUNNY     90  54  29 SE8       30.09F
HILL CITY KS   SUNNY     95  63  34 E10       30.00F
IMPERIAL NEB   SUNNY     96  40  14 VRB6      30.05F
MCCOOK NEB     SUNNY     95  52  23 E7        30.02F
AKRON CO       SUNNY     91  43  18 SE7G20    30.14F
BURLINGTON CO  SUNNY     89  53  29 E10G21    30.13F
LIMON CO       SUNNY     86  45  23 E8        30.18F
$$

...UNOFFICIAL OBSERVATIONS...

CITY           SKY/WX    TMP DP  RH WIND       PRES   REMARKS
LENORA KS        N/A     93  32  11 MISG        N/A
NORTON KS      SUNNY     95  48  20 E8        30.01F
SHARON SPRINGS   N/A     90  61  37 E9          N/A
TRENTON NEB      N/A     96  32  10 E6          N/A
KIT CARSON CO    N/A     88  54  31 MISG        N/A
YUMA CO        FAIR      90  30  12 S9        30.11S
$$




USA.gov is the U.S. government's official web portal to all federal, state and local government web resources and services.